This demonstration page uses our WeatherBlox Daily Observations layout. Learn more.

Left ArrowRight Arrow

39.95238, -75.16362

Hourly Observations for May 13, 2015

Temp ( °F °C ) Dew Point ( °F °C ) Humidity (%) Winds ( mph kmh ) Pressure ( in mb ) Visibility ( mi km ) Precip ( " mm )
12:54 am 00:54 Mostly Cloudy 72 22.2 41 5 33 33 WNW 22 35 29.94 1014 10 16 0.00 0.00
1:54 am 01:54 Mostly Cloudy 68 20 39 3.9 35 35 WNW 20 31 29.96 1015 10 16 0.00 0.00
2:54 am 02:54 Mostly Cloudy 65 18.3 37 2.8 36 36 NW 17 28 29.98 1015 10 16 0.00 0.00
3:54 am 03:54 Mostly Cloudy 63 17.2 37 2.8 38 38 NW 17 28 30.00 1016 10 16 0.00 0.00
4:54 am 04:54 Mostly Cloudy 62 16.7 38 3.3 41 41 WNW 10 17 30.03 1017 10 16 0.00 0.00
5:54 am 05:54 Mostly Cloudy 61 16.1 40 4.4 46 46 WNW 7 11 30.04 1017 10 16 0.00 0.00
6:54 am 06:54 Mostly Cloudy 61 16.1 41 5 48 48 W 10 17 30.07 1018 10 16 0.00 0.00
7:54 am 07:54 Mostly Cloudy 62 16.7 41 5 46 46 WNW 13 20 30.09 1019 10 16 0.00 0.00
8:54 am 08:54 Mostly Cloudy 64 17.8 39 3.9 40 40 NW 22 35 30.11 1020 10 16 0.00 0.00
9:54 am 09:54 Mostly Cloudy 65 18.3 38 3.3 37 37 WNW 16 26 30.13 1020 10 16 0.00 0.00
10:54 am 10:54 Cloudy 64 17.8 39 3.9 40 40 NW 14 22 30.15 1021 10 16 0.00 0.00
11:54 am 11:54 Mostly Cloudy 67 19.4 39 3.9 36 36 NNW 16 26 30.15 1021 10 16 0.00 0.00
12:54 pm 12:54 Mostly Cloudy 67 19.4 39 3.9 36 36 WNW 17 28 30.14 1021 10 16 0.00 0.00
1:54 pm 13:54 Mostly Cloudy 69 20.6 40 4.4 35 35 WNW 15 24 30.14 1021 10 16 0.00 0.00
2:54 pm 14:54 Mostly Cloudy 69 20.6 40 4.4 35 35 NW 14 22 30.13 1020 10 16 0.00 0.00
3:54 pm 15:54 Partly Cloudy 71 21.7 39 3.9 31 31 NW 18 30 30.12 1020 10 16 0.00 0.00
4:54 pm 16:54 Partly Cloudy 71 21.7 38 3.3 30 30 NW 20 31 30.13 1020 10 16 0.00 0.00
5:54 pm 17:54 Mostly Cloudy 69 20.6 38 3.3 32 32 NW 17 28 30.14 1021 10 16 0.00 0.00
6:54 pm 18:54 Mostly Cloudy 68 20 38 3.3 33 33 NW 21 33 30.16 1022 10 16 0.00 0.00
7:54 pm 19:54 Mostly Cloudy 65 18.3 38 3.3 37 37 NNW 14 22 30.20 1023 10 16 0.00 0.00
8:54 pm 20:54 Mostly Cloudy 61 16.1 38 3.3 43 43 N 21 33 30.24 1024 10 16 0.00 0.00
9:54 pm 21:54 Mostly Cloudy 58 14.4 38 3.3 48 48 N 18 30 30.28 1025 10 16 0.00 0.00
10:54 pm 22:54 Mostly Cloudy 56 13.3 37 2.8 49 49 N 17 28 30.30 1026 10 16 0.00 0.00
11:54 pm 23:54 Partly Cloudy 55 12.8 37 2.8 51 51 N 10 17 30.32 1027 10 16 0.00 0.00

Powered by AerisWeather